THOR ABLESTAR DEB, 656

Orbit data source: Space-Track

THOR ABLESTAR DEB, 656 is space debris in LEO originally from a launch on Thu, 29 Jun 1961 UTC launched from the Air Force Eastern Test Range (AFETR). Debris objects in space refer to the collection of defunct objects orbiting the Earth. Examples of debris include non-operational satellites, rocket bodies, and fragments generated from explosions, collisions, or faulty payload assembly.

Loading next visibility...
Identifier
656, 1961-015HH
Orbit
LEO
Country
Flag of USUS
Related business
Manufacturer
Unknown
Mission
Spacecraft
Bus & Motor
Unknown
Mass
Unknown
Launch date (UTC)
1961-06-29 (64 years ago)
Launch vehicle
Unknown
Launch site
Air Force Eastern Test Range (AFETR)
Object type
Payload
Rocket body
Debris
Shape & HBR
Unknown
Radar Cross Section
Small (<0.1 m²)

Expand to show TLE details & history
Last TLE update: 12 hours ago

TLE from 12 hours ago
0 THOR ABLESTAR DEB
1 00656U 61015HH  25260.69212682  .00001435  00000-0  29376-2 0  9993
2 00656  66.2921  40.6156 0667801 254.8258  97.8003 12.72338300932324
Epoch: 2025-09-17T16:36Z
TLE epoch observation values (Epoch: 2025-09-17T16:36:39.757Z)
Latitude
0.00003°
Longitude
154.58553°
Altitude
1,477.982 km
Speed
7.077 km/s
True Right ascension
02h 42m 27s
True Declination
0° 00' 00"
Sunlit
Object was in full shadow at epoch
Visualization orbit readout
Latitude
Unknown
Longitude
Unknown
Altitude
Unknown
Speed
Unknown
Apparent Right ascension
Unknown
Apparent Declination
Unknown
Sunlit
N/A
Visualization observer readout
Local Sidereal Time
21:12:18
Azimuth
Unknown
Elevation
Unknown
Doppler factor
Unknown
Orbital elements
Apogee altitude
1,888.447 km
Perigee altitude
853.476 km
Semi-major axis
7,749.098 km
Eccentricity
0.06678
Inclination
66.2921°
RAAN
40.6156°
Arg. of periapsis
254.8258°
True anomaly
105.27573°
Mean anomaly
97.8003°
Eccentric anomaly
101.54905°
Mean motion
3.18175 °/min
Orbital period
113.15 mins
BSTAR
0.0029376
Loading maneuver chart data...
Computing Atmospheric mass density...

Documentation

Showing up to 5 results
|